Flag for U.S.A. Weather past 2 weeks in Lakewood, Colorado, U.S.A.

Now
54 °F

Thunderstorms. Broken clouds.


Feels Like: 51 °F
Forecast: 47 / 71 °F
Wind: 9 mph from Southeast

Location: Centennial Airport

Current Time: May 26, 2015 at 10:25:41 PM

Latest Report: May 26, 2015 at 8:53 PM


Visibility: 10 mi

Pressure: 29.98 "Hg

Humidity: 77%

Dew point: 47 °F

Location of LakewoodLocation

Historic Weather in Lakewood — Graph

°F

Lakewood temperature yesterday

Maximum temperature yesterday: 64 °F (at 2:53 PM)
Minimum temperature yesterday: 41 °F (at 5:53 AM)
Average temperature yesterday: 52 °F

Past Weeks' High & Low Weather Summary

 TemperatureHumidityPressure
High71 °F (May 14, 2:53 PM)100% (May 19, 12:53 AM)30.34 "Hg (May 19, 12:53 AM)
Low36 °F (May 20, 5:53 AM)22% (May 14, 10:53 AM)29.56 "Hg (May 16, 12:53 PM)
Average51 °F72%29.94 "Hg
* Reported May 11 8:53 PM — May 26 8:53 PM, Lakewood, Weather by CustomWeather, © 2015

Note: Actual official high and low records may vary slightly from our data, if they occured in-between our weather recording intervals... More about our weather records

Advertising

Lakewood weather history for previous 24 hours

 ConditionsComfort  
Time TempWeatherWind HumidityBarometerVisibility
8:53 PM
Tue, May 26
54 °FThunderstorms. Broken clouds.9 mph77%29.98 "Hg10 mi
7:53 PM60 °FThunderstorms. Broken clouds.6 mph62%29.96 "Hg10 mi
6:53 PM62 °FBroken clouds.8 mph54%29.95 "Hg10 mi
5:53 PM66 °FThunderstorms. Broken clouds.9 mph43%29.92 "Hg10 mi
4:53 PM65 °FPartly sunny.13 mph44%29.93 "Hg10 mi
3:53 PM68 °FPartly sunny.5 mph32%29.90 "Hg10 mi
2:53 PM68 °FBroken clouds.No wind33%29.90 "Hg10 mi
1:53 PM67 °FPartly sunny.8 mph33%29.92 "Hg10 mi
12:53 PM67 °FScattered clouds.5 mph36%29.93 "Hg10 mi
11:53 AM64 °FScattered clouds.8 mph41%29.95 "Hg10 mi
10:53 AM62 °FScattered clouds.No wind41%29.97 "Hg10 mi
9:53 AM58 °FBroken clouds.7 mph60%29.98 "Hg10 mi
8:53 AM55 °FBroken clouds.6 mph69%30.01 "Hg10 mi
7:53 AM49 °FPartly sunny.5 mph90%30.01 "Hg10 mi
6:53 AM46 °FBroken clouds.3 mph86%29.99 "Hg10 mi
5:53 AM44 °FPassing clouds.7 mph89%29.96 "Hg10 mi
4:53 AM42 °FPassing clouds.5 mph96%29.95 "Hg10 mi
3:53 AM43 °FPassing clouds.7 mph97%29.92 "Hg10 mi
2:53 AM46 °FPassing clouds.5 mph89%29.91 "Hg10 mi
1:53 AM46 °FPassing clouds.6 mph89%29.92 "Hg10 mi
12:53 AM47 °FPassing clouds.9 mph90%29.93 "Hg10 mi
11:53 PM
Mon, May 25
47 °FPassing clouds.7 mph90%29.94 "Hg10 mi
10:53 PM48 °FPartly cloudy.7 mph93%29.95 "Hg10 mi
Weather by CustomWeather, © 2015

See weather overviewHow to use our weather pages